| time (UTC) | temp F | wind direction | speed MPH | gust MPH | rain 1hr in | rain 24hr in | rain mn in | humidity % | barometer mb |
| 20260906014918 | 68 | 182 | 8.0 | 8.0 | 0.00 | 0.00 | 0.00 | 60 | 1021.6 |
| 20260906014419 | 68 | 183 | 7.0 | 8.0 | 0.00 | 0.00 | 0.00 | 60 | 1021.8 |
| 20260906013918 | 68 | 184 | 8.0 | 8.0 | 0.00 | 0.00 | 0.00 | 60 | 1021.7 |
| 20260906013417 | 68 | 183 | 7.0 | 8.0 | 0.00 | 0.00 | 0.00 | 59 | 1021.8 |
| 20260906012918 | 68 | 185 | 8.0 | 8.0 | 0.00 | 0.00 | 0.00 | 59 | 1021.7 |
| 20260906012417 | 68 | 182 | 7.0 | 8.0 | 0.00 | 0.00 | 0.00 | 59 | 1021.8 |
| 20260906011918 | 68 | 181 | 7.0 | 8.0 | 0.00 | 0.00 | 0.00 | 59 | 1021.7 |
| 20260906011417 | 68 | 186 | 7.0 | 9.0 | 0.00 | 0.00 | 0.00 | 59 | 1021.7 |
| 20260906010918 | 68 | 187 | 7.0 | 9.0 | 0.00 | 0.00 | 0.00 | 59 | 1021.6 |
| 20260906010416 | 68 | 183 | 7.0 | 9.0 | 0.00 | 0.00 | 0.00 | 60 | 1021.7 |
| 20260906005918 | 68 | 183 | 7.0 | 8.0 | 0.00 | 0.00 | 0.00 | 60 | 1021.6 |
| 20260906005417 | 69 | 183 | 8.0 | 8.0 | 0.00 | 0.00 | 0.00 | 59 | 1021.5 |
| 20260906004917 | 69 | 182 | 7.0 | 8.0 | 0.00 | 0.00 | 0.00 | 59 | 1021.6 |
| 20260906004416 | 69 | 182 | 6.0 | 8.0 | 0.00 | 0.00 | 0.00 | 59 | 1021.4 |
| 20260906003906 | 69 | 182 | 7.0 | 8.0 | 0.00 | 0.00 | 0.00 | 59 | 1021.4 |
| 20260906003411 | 69 | 182 | 7.0 | 8.0 | 0.00 | 0.00 | 0.00 | 59 | 1021.7 |
| 20260906002907 | 69 | 182 | 7.0 | 8.0 | 0.00 | 0.00 | 0.00 | 59 | 1021.6 |
| 20260906002410 | 69 | 184 | 8.0 | 8.0 | 0.00 | 0.00 | 0.00 | 59 | 1021.7 |
| 20260906001906 | 69 | 182 | 8.0 | 8.0 | 0.00 | 0.00 | 0.00 | 59 | 1021.6 |
| 20260906001410 | 69 | 182 | 7.0 | 8.0 | 0.00 | 0.00 | 0.00 | 59 | 1021.6 |
| 20260906000907 | 69 | 183 | 7.0 | 8.0 | 0.00 | 0.00 | 0.00 | 59 | 1021.6 |
| 20260906000407 | 69 | 183 | 7.0 | 8.0 | 0.00 | 0.00 | 0.00 | 59 | 1021.7 |
| 20260905235904 | 69 | 183 | 7.0 | 8.0 | 0.00 | 0.00 | 0.00 | 59 | 1021.6 |
| 20260905235404 | 69 | 183 | 8.0 | 8.0 | 0.00 | 0.00 | 0.00 | 59 | 1021.8 |
| 20260905234907 | 70 | 182 | 8.0 | 8.0 | 0.00 | 0.00 | 0.00 | 59 | 1021.9 |
| 20260905234405 | 70 | 184 | 7.0 | 8.0 | 0.00 | 0.00 | 0.00 | 59 | 1021.7 |
| 20260905233903 | 70 | 184 | 7.0 | 8.0 | 0.00 | 0.00 | 0.00 | 58 | 1021.5 |
| 20260905233405 | 70 | 183 | 6.0 | 7.0 | 0.00 | 0.00 | 0.00 | 58 | 1021.6 |
| 20260905232909 | 71 | 184 | 7.0 | 8.0 | 0.00 | 0.00 | 0.00 | 57 | 1021.6 |
| 20260905232405 | 71 | 181 | 7.0 | 8.0 | 0.00 | 0.00 | 0.00 | 56 | 1021.5 |
| 20260905231907 | 71 | 183 | 7.0 | 7.0 | 0.00 | 0.00 | 0.00 | 54 | 1021.5 |
| 20260905231405 | 71 | 184 | 7.0 | 7.0 | 0.00 | 0.00 | 0.00 | 53 | 1021.4 |
| 20260905230903 | 71 | 183 | 7.0 | 7.0 | 0.00 | 0.00 | 0.00 | 53 | 1021.4 |
| 20260905230403 | 71 | 182 | 6.0 | 8.0 | 0.00 | 0.00 | 0.00 | 53 | 1021.4 |
| 20260905225903 | 71 | 182 | 7.0 | 8.0 | 0.00 | 0.00 | 0.00 | 53 | 1021.2 |
| 20260905225405 | 71 | 183 | 7.0 | 8.0 | 0.00 | 0.00 | 0.00 | 53 | 1021.1 |
| 20260905224903 | 71 | 182 | 7.0 | 8.0 | 0.00 | 0.00 | 0.00 | 53 | 1021.2 |
| 20260905224406 | 71 | 182 | 7.0 | 8.0 | 0.00 | 0.00 | 0.00 | 53 | 1021.0 |
| 20260905223903 | 71 | 182 | 7.0 | 8.0 | 0.00 | 0.00 | 0.00 | 52 | 1021.2 |
| 20260905223405 | 71 | 184 | 7.0 | 8.0 | 0.00 | 0.00 | 0.00 | 52 | 1021.0 |
| 20260905222904 | 71 | 183 | 7.0 | 9.0 | 0.00 | 0.00 | 0.00 | 52 | 1021.0 |
| 20260905222404 | 72 | 182 | 7.0 | 9.0 | 0.00 | 0.00 | 0.00 | 52 | 1021.0 |
| 20260905221902 | 72 | 182 | 7.0 | 8.0 | 0.00 | 0.00 | 0.00 | 52 | 1021.1 |
| 20260905221405 | 72 | 182 | 7.0 | 8.0 | 0.00 | 0.00 | 0.00 | 51 | 1020.9 |
| 20260905220904 | 72 | 185 | 7.0 | 8.0 | 0.00 | 0.00 | 0.00 | 51 | 1021.0 |
| 20260905220407 | 72 | 181 | 7.0 | 8.0 | 0.00 | 0.00 | 0.00 | 50 | 1020.8 |
| 20260905215903 | 73 | 181 | 7.0 | 8.0 | 0.00 | 0.00 | 0.00 | 50 | 1020.7 |
| 20260905215403 | 73 | 186 | 7.0 | 8.0 | 0.00 | 0.00 | 0.00 | 49 | 1020.9 |
| 20260905214904 | 73 | 184 | 8.0 | 8.0 | 0.00 | 0.00 | 0.00 | 48 | 1020.9 |
| 20260905214403 | 73 | 180 | 7.0 | 8.0 | 0.00 | 0.00 | 0.00 | 48 | 1020.6 |
| 20260905213903 | 74 | 181 | 7.0 | 8.0 | 0.00 | 0.00 | 0.00 | 47 | 1020.5 |
| 20260905213405 | 74 | 180 | 7.0 | 7.0 | 0.00 | 0.00 | 0.00 | 47 | 1020.4 |
| 20260905212903 | 74 | 183 | 7.0 | 8.0 | 0.00 | 0.00 | 0.00 | 47 | 1020.4 |
| 20260905212405 | 74 | 183 | 7.0 | 8.0 | 0.00 | 0.00 | 0.00 | 47 | 1020.0 |
| 20260905211903 | 74 | 183 | 7.0 | 8.0 | 0.00 | 0.00 | 0.00 | 46 | 1020.1 |
| 20260905211404 | 74 | 181 | 7.0 | 8.0 | 0.00 | 0.00 | 0.00 | 46 | 1020.4 |
| 20260905210905 | 74 | 181 | 7.0 | 8.0 | 0.00 | 0.00 | 0.00 | 45 | 1020.3 |
| 20260905210403 | 75 | 182 | 7.0 | 7.0 | 0.00 | 0.00 | 0.00 | 45 | 1019.9 |
| 20260905205904 | 75 | 182 | 7.0 | 8.0 | 0.00 | 0.00 | 0.00 | 45 | 1020.3 |
| 20260905205404 | 75 | 181 | 6.0 | 8.0 | 0.00 | 0.00 | 0.00 | 44 | 1019.9 |
| 20260905204904 | 75 | 181 | 6.0 | 8.0 | 0.00 | 0.00 | 0.00 | 44 | 1019.7 |
| 20260905204403 | 75 | 181 | 7.0 | 9.0 | 0.00 | 0.00 | 0.00 | 44 | 1019.6 |
| 20260905203906 | 75 | 181 | 6.0 | 9.0 | 0.00 | 0.00 | 0.00 | 44 | 1019.5 |
| 20260905203404 | 76 | 181 | 6.0 | 8.0 | 0.00 | 0.00 | 0.00 | 43 | 1019.6 |
| 20260905202905 | 76 | 182 | 7.0 | 8.0 | 0.00 | 0.00 | 0.00 | 43 | 1019.6 |
| 20260905202404 | 76 | 184 | 5.0 | 8.0 | 0.00 | 0.00 | 0.00 | 43 | 1019.5 |
| 20260905201905 | 76 | 182 | 6.0 | 7.0 | 0.00 | 0.00 | 0.00 | 43 | 1019.4 |
| 20260905201403 | 76 | 182 | 6.0 | 8.0 | 0.00 | 0.00 | 0.00 | 43 | 1019.4 |
| 20260905200905 | 76 | 180 | 7.0 | 8.0 | 0.00 | 0.00 | 0.00 | 42 | 1019.5 |
| 20260905200404 | 77 | 181 | 7.0 | 8.0 | 0.00 | 0.00 | 0.00 | 42 | 1019.4 |
| 20260905195905 | 77 | 182 | 6.0 | 8.0 | 0.00 | 0.00 | 0.00 | 42 | 1019.2 |
| 20260905195405 | 77 | 181 | 6.0 | 8.0 | 0.00 | 0.00 | 0.00 | 42 | 1019.2 |
| 20260905194904 | 77 | 181 | 6.0 | 8.0 | 0.00 | 0.00 | 0.00 | 41 | 1018.9 |
| 20260905194405 | 78 | 182 | 6.0 | 8.0 | 0.00 | 0.00 | 0.00 | 41 | 1018.7 |
| 20260905193903 | 78 | 180 | 6.0 | 8.0 | 0.00 | 0.00 | 0.00 | 41 | 1018.7 |
| 20260905193403 | 78 | 180 | 6.0 | 8.0 | 0.00 | 0.00 | 0.00 | 41 | 1018.7 |
| 20260905192906 | 78 | 181 | 5.0 | 8.0 | 0.00 | 0.00 | 0.00 | 41 | 1018.4 |
| 20260905192404 | 78 | 180 | 6.0 | 7.0 | 0.00 | 0.00 | 0.00 | 41 | 1018.6 |
| 20260905191906 | 79 | 182 | 6.0 | 9.0 | 0.00 | 0.00 | 0.00 | 41 | 1018.3 |
| 20260905191405 | 79 | 180 | 7.0 | 9.0 | 0.00 | 0.00 | 0.00 | 42 | 1018.5 |
| 20260905190906 | 79 | 180 | 5.0 | 8.0 | 0.00 | 0.00 | 0.00 | 43 | 1018.3 |
| 20260905190404 | 79 | 180 | 7.0 | 8.0 | 0.00 | 0.00 | 0.00 | 43 | 1018.3 |
| 20260905185904 | 79 | 180 | 6.0 | 7.0 | 0.00 | 0.00 | 0.00 | 43 | 1018.4 |
| 20260905185403 | 79 | 182 | 6.0 | 7.0 | 0.00 | 0.00 | 0.00 | 43 | 1018.1 |
| 20260905184905 | 79 | 177 | 6.0 | 9.0 | 0.00 | 0.00 | 0.00 | 43 | 1018.3 |
| 20260905184403 | 80 | 180 | 6.0 | 9.0 | 0.00 | 0.00 | 0.00 | 43 | 1018.0 |
| 20260905183904 | 80 | 183 | 9.0 | 9.0 | 0.00 | 0.00 | 0.00 | 43 | 1017.9 |
| 20260905183403 | 80 | 182 | 6.0 | 9.0 | 0.00 | 0.00 | 0.00 | 43 | 1018.0 |
| 20260905182905 | 80 | 181 | 6.0 | 8.0 | 0.00 | 0.00 | 0.00 | 43 | 1018.0 |
| 20260905182403 | 80 | 181 | 5.0 | 7.0 | 0.00 | 0.00 | 0.00 | 42 | 1017.8 |
| 20260905181904 | 80 | 181 | 6.0 | 8.0 | 0.00 | 0.00 | 0.00 | 42 | 1018.0 |
| 20260905181404 | 81 | 179 | 5.0 | 8.0 | 0.00 | 0.00 | 0.00 | 42 | 1017.6 |
| 20260905180903 | 81 | 180 | 6.0 | 8.0 | 0.00 | 0.00 | 0.00 | 42 | 1017.3 |
| 20260905180403 | 81 | 174 | 6.0 | 9.0 | 0.00 | 0.00 | 0.00 | 42 | 1017.4 |
| 20260905175903 | 81 | 180 | 4.0 | 9.0 | 0.00 | 0.00 | 0.00 | 41 | 1017.4 |
| 20260905175404 | 82 | 182 | 4.0 | 8.0 | 0.00 | 0.00 | 0.00 | 41 | 1017.3 |
| 20260905174905 | 82 | 181 | 5.0 | 9.0 | 0.00 | 0.00 | 0.00 | 42 | 1017.1 |
| 20260905174404 | 82 | 179 | 7.0 | 9.0 | 0.00 | 0.00 | 0.00 | 42 | 1016.9 |
| 20260905173904 | 82 | 180 | 5.0 | 7.0 | 0.00 | 0.00 | 0.00 | 42 | 1017.1 |
| 20260905173404 | 83 | 180 | 5.0 | 9.0 | 0.00 | 0.00 | 0.00 | 41 | 1016.7 |
| 20260905172904 | 83 | 176 | 6.0 | 9.0 | 0.00 | 0.00 | 0.00 | 41 | 1016.7 |
| 20260905172403 | 83 | 178 | 6.0 | 8.0 | 0.00 | 0.00 | 0.00 | 41 | 1016.7 |
| 20260905171904 | 84 | 180 | 6.0 | 9.0 | 0.00 | 0.00 | 0.00 | 40 | 1016.7 |
| 20260905171404 | 84 | 180 | 5.0 | 9.0 | 0.00 | 0.00 | 0.00 | 40 | 1016.4 |
| 20260905170905 | 84 | 181 | 5.0 | 8.0 | 0.00 | 0.00 | 0.00 | 39 | 1016.3 |
| 20260905170403 | 85 | 181 | 6.0 | 8.0 | 0.00 | 0.00 | 0.00 | 39 | 1016.2 |
| 20260905165903 | 85 | 183 | 6.0 | 8.0 | 0.00 | 0.00 | 0.00 | 39 | 1016.2 |
| 20260905165404 | 85 | 179 | 6.0 | 8.0 | 0.00 | 0.00 | 0.00 | 39 | 1016.0 |
| 20260905164903 | 85 | 180 | 6.0 | 8.0 | 0.00 | 0.00 | 0.00 | 39 | 1015.9 |
| 20260905164404 | 85 | 180 | 6.0 | 8.0 | 0.00 | 0.00 | 0.00 | 39 | 1016.0 |
| 20260905163904 | 85 | 180 | 5.0 | 7.0 | 0.00 | 0.00 | 0.00 | 39 | 1015.8 |
| 20260905163411 | 86 | 180 | 5.0 | 8.0 | 0.00 | 0.00 | 0.00 | 39 | 1015.9 |
| 20260905162903 | 86 | 180 | 5.0 | 9.0 | 0.00 | 0.00 | 0.00 | 39 | 1015.6 |
| 20260905162405 | 86 | 180 | 5.0 | 9.0 | 0.00 | 0.00 | 0.00 | 39 | 1015.7 |
| 20260905161904 | 87 | 181 | 6.0 | 8.0 | 0.00 | 0.00 | 0.00 | 39 | 1015.6 |
| 20260905161404 | 87 | 169 | 5.0 | 10.0 | 0.00 | 0.00 | 0.00 | 40 | 1015.4 |
| 20260905160904 | 88 | 177 | 5.0 | 10.0 | 0.00 | 0.00 | 0.00 | 40 | 1015.4 |
| 20260905160405 | 88 | 176 | 5.0 | 9.0 | 0.00 | 0.00 | 0.00 | 41 | 1015.1 |
| 20260905155903 | 88 | 178 | 5.0 | 9.0 | 0.00 | 0.00 | 0.00 | 42 | 1015.2 |
| 20260905155406 | 87 | 179 | 6.0 | 9.0 | 0.00 | 0.00 | 0.00 | 42 | 1015.2 |
| 20260905154903 | 87 | 180 | 6.0 | 9.0 | 0.00 | 0.00 | 0.00 | 43 | 1015.0 |
| 20260905154411 | 87 | 177 | 5.0 | 7.0 | 0.00 | 0.00 | 0.00 | 43 | 1015.1 |
| 20260905153907 | 88 | 180 | 5.0 | 8.0 | 0.00 | 0.00 | 0.00 | 43 | 1015.0 |
| 20260905153409 | 88 | 180 | 4.0 | 8.0 | 0.00 | 0.00 | 0.00 | 42 | 1014.8 |
| 20260905152908 | 88 | 181 | 5.0 | 7.0 | 0.00 | 0.00 | 0.00 | 42 | 1014.8 |
| 20260905152409 | 89 | 170 | 4.0 | 7.0 | 0.00 | 0.00 | 0.00 | 42 | 1014.7 |
| 20260905151906 | 89 | 172 | 5.0 | 7.0 | 0.00 | 0.00 | 0.00 | 42 | 1014.7 |
| 20260905151410 | 90 | 174 | 5.0 | 7.0 | 0.00 | 0.00 | 0.00 | 42 | 1014.7 |
| 20260905150907 | 90 | 182 | 4.0 | 8.0 | 0.00 | 0.00 | 0.00 | 42 | 1014.6 |
| 20260905150409 | 90 | 191 | 3.0 | 9.0 | 0.00 | 0.00 | 0.00 | 42 | 1014.8 |
| 20260905145903 | 91 | 181 | 4.0 | 9.0 | 0.00 | 0.00 | 0.00 | 42 | 1014.4 |
| 20260905145409 | 92 | 179 | 6.0 | 9.0 | 0.00 | 0.00 | 0.00 | 42 | 1014.3 |
| 20260905144903 | 93 | 179 | 4.0 | 7.0 | 0.00 | 0.00 | 0.00 | 39 | 1014.3 |
| 20260905144406 | 93 | 172 | 5.0 | 9.0 | 0.00 | 0.00 | 0.00 | 39 | 1014.1 |
| 20260905144135 | 93 | 171 | 4.0 | 9.0 | 0.00 | 0.00 | 0.00 | 39 | 1014.2 |
| 20260905143404 | 93 | 180 | 5.0 | 7.0 | 0.00 | 0.00 | 0.00 | 39 | 1014.1 |
| 20260905142903 | 93 | 175 | 5.0 | 7.0 | 0.00 | 0.00 | 0.00 | 39 | 1014.2 |
| 20260905142405 | 93 | 173 | 4.0 | 7.0 | 0.00 | 0.00 | 0.00 | 39 | 1014.2 |
| 20260905141904 | 94 | 177 | 5.0 | 7.0 | 0.00 | 0.00 | 0.00 | 39 | 1014.0 |
| 20260905141405 | 94 | 177 | 4.0 | 7.0 | 0.00 | 0.00 | 0.00 | 38 | 1013.9 |
| 20260905140903 | 94 | 177 | 6.0 | 10.0 | 0.00 | 0.00 | 0.00 | 38 | 1013.9 |
| 20260905140407 | 94 | 166 | 4.0 | 10.0 | 0.00 | 0.00 | 0.00 | 38 | 1013.9 |
| 20260905135904 | 94 | 177 | 4.0 | 7.0 | 0.00 | 0.00 | 0.00 | 38 | 1014.1 |
| 20260905135403 | 95 | 176 | 5.0 | 8.0 | 0.00 | 0.00 | 0.00 | 38 | 1014.0 |
| 20260905134905 | 95 | 178 | 5.0 | 8.0 | 0.00 | 0.00 | 0.00 | 38 | 1014.2 |
| 20260905134404 | 95 | 19 | 3.0 | 6.0 | 0.00 | 0.00 | 0.00 | 37 | 1014.0 |
| 20260905133904 | 96 | 6 | 2.0 | 4.0 | 0.00 | 0.00 | 0.00 | 37 | 1014.2 |
| 20260905133403 | 95 | 24 | 2.0 | 5.0 | 0.00 | 0.00 | 0.00 | 37 | 1014.0 |
| 20260905132904 | 95 | 18 | 2.0 | 5.0 | 0.00 | 0.00 | 0.00 | 37 | 1013.8 |
| 20260905132404 | 96 | 13 | 3.0 | 4.0 | 0.00 | 0.00 | 0.00 | 36 | 1013.9 |
| 20260905131903 | 97 | 17 | 1.0 | 5.0 | 0.00 | 0.00 | 0.00 | 35 | 1013.8 |
| 20260905131403 | 97 | 24 | 2.0 | 5.0 | 0.00 | 0.00 | 0.00 | 35 | 1013.8 |
| 20260905130904 | 98 | 44 | 0.0 | 5.0 | 0.00 | 0.00 | 0.00 | 33 | 1013.9 |
| 20260905130403 | 96 | 89 | 2.0 | 5.0 | 0.00 | 0.00 | 0.00 | 34 | 1013.8 |
| 20260905125902 | 97 | 37 | 0.0 | 5.0 | 0.00 | 0.00 | 0.00 | 34 | 1013.8 |
| 20260905125405 | 99 | 22 | 0.0 | 5.0 | 0.00 | 0.00 | 0.00 | 34 | 1014.1 |
| 20260905124902 | 99 | 167 | 0.0 | 3.0 | 0.00 | 0.00 | 0.00 | 32 | 1014.0 |
| 20260905124405 | 99 | 27 | 0.0 | 4.0 | 0.00 | 0.00 | 0.00 | 33 | 1014.1 |
| 20260905123903 | 98 | 25 | 1.0 | 4.0 | 0.00 | 0.00 | 0.00 | 33 | 1014.0 |
| 20260905123404 | 99 | 63 | 2.0 | 3.0 | 0.00 | 0.00 | 0.00 | 33 | 1014.0 |
| 20260905122904 | 98 | 34 | 0.0 | 3.0 | 0.00 | 0.00 | 0.00 | 34 | 1014.2 |
| 20260905122405 | 97 | 195 | 0.0 | 4.0 | 0.00 | 0.00 | 0.00 | 35 | 1014.4 |
| 20260905121903 | 97 | 73 | 0.0 | 4.0 | 0.00 | 0.00 | 0.00 | 35 | 1014.2 |
| 20260905121404 | 98 | 44 | 0.0 | 3.0 | 0.00 | 0.00 | 0.00 | 35 | 1014.4 |
| 20260905120904 | 98 | 18 | 2.0 | 3.0 | 0.00 | 0.00 | 0.00 | 35 | 1014.3 |
| 20260905120403 | 97 | 193 | 2.0 | 3.0 | 0.00 | 0.00 | 0.00 | 35 | 1014.4 |
| 20260905115901 | 98 | 21 | 2.0 | 3.0 | 0.00 | 0.00 | 0.00 | 35 | 1014.6 |
| 20260905115402 | 97 | 28 | 1.0 | 3.0 | 0.00 | 0.00 | 0.00 | 35 | 1014.5 |
| 20260905114901 | 97 | 97 | 0.0 | 4.0 | 0.00 | 0.00 | 0.00 | 34 | 1014.5 |
| 20260905114404 | 97 | 178 | 1.0 | 7.0 | 0.00 | 0.00 | 0.00 | 33 | 1014.6 |
| 20260905113901 | 97 | 11 | 0.0 | 10.0 | 0.00 | 0.00 | 0.00 | 32 | 1014.6 |
| 20260905113402 | 96 | 174 | 6.0 | 10.0 | 0.00 | 0.00 | 0.00 | 33 | 1014.5 |
| 20260905112903 | 97 | 177 | 6.0 | 10.0 | 0.00 | 0.00 | 0.00 | 33 | 1014.6 |
| 20260905112402 | 96 | 182 | 9.0 | 11.0 | 0.00 | 0.00 | 0.00 | 33 | 1014.9 |
| 20260905111901 | 96 | 178 | 6.0 | 11.0 | 0.00 | 0.00 | 0.00 | 35 | 1014.5 |
| 20260905111402 | 95 | 185 | 9.0 | 10.0 | 0.00 | 0.00 | 0.00 | 34 | 1014.8 |
| 20260905110901 | 94 | 177 | 6.0 | 9.0 | 0.00 | 0.00 | 0.00 | 35 | 1014.7 |
| 20260905110404 | 94 | 178 | 8.0 | 9.0 | 0.00 | 0.00 | 0.00 | 36 | 1015.0 |
| 20260905105859 | 93 | 177 | 6.0 | 9.0 | 0.00 | 0.00 | 0.00 | 36 | 1015.0 |
| 20260905105400 | 93 | 180 | 9.0 | 9.0 | 0.00 | 0.00 | 0.00 | 36 | 1015.1 |
| 20260905104901 | 92 | 179 | 7.0 | 8.0 | 0.00 | 0.00 | 0.00 | 37 | 1015.2 |
| 20260905104359 | 92 | 179 | 7.0 | 8.0 | 0.00 | 0.00 | 0.00 | 37 | 1015.0 |
| 20260905103857 | 92 | 174 | 6.0 | 8.0 | 0.00 | 0.00 | 0.00 | 37 | 1015.2 |
| 20260905103359 | 92 | 178 | 6.0 | 7.0 | 0.00 | 0.00 | 0.00 | 37 | 1015.1 |
| 20260905102858 | 92 | 175 | 5.0 | 9.0 | 0.00 | 0.00 | 0.00 | 37 | 1015.3 |
| 20260905102401 | 92 | 175 | 6.0 | 9.0 | 0.00 | 0.00 | 0.00 | 38 | 1015.0 |
| 20260905101859 | 91 | 178 | 6.0 | 9.0 | 0.00 | 0.00 | 0.00 | 38 | 1015.3 |
| 20260905101359 | 91 | 178 | 5.0 | 9.0 | 0.00 | 0.00 | 0.00 | 38 | 1015.2 |
| 20260905100912 | 92 | 176 | 5.0 | 9.0 | 0.00 | 0.00 | 0.00 | 38 | 1015.4 |
| 20260905100411 | 92 | 177 | 6.0 | 7.0 | 0.00 | 0.00 | 0.00 | 37 | 1015.3 |
| 20260905095859 | 91 | 179 | 6.0 | 10.0 | 0.00 | 0.00 | 0.00 | 38 | 1015.5 |
| 20260905095413 | 91 | 177 | 6.0 | 10.0 | 0.00 | 0.00 | 0.00 | 38 | 1015.6 |
| 20260905094912 | 91 | 181 | 8.0 | 9.0 | 0.00 | 0.00 | 0.00 | 38 | 1015.4 |
| 20260905094414 | 91 | 178 | 6.0 | 9.0 | 0.00 | 0.00 | 0.00 | 38 | 1015.5 |
| 20260905093912 | 90 | 178 | 6.0 | 9.0 | 0.00 | 0.00 | 0.00 | 39 | 1015.5 |
| 20260905093401 | 90 | 180 | 6.0 | 9.0 | 0.00 | 0.00 | 0.00 | 39 | 1015.5 |
| 20260905092900 | 90 | 180 | 7.0 | 9.0 | 0.00 | 0.00 | 0.00 | 40 | 1015.4 |
| 20260905092401 | 90 | 178 | 6.0 | 10.0 | 0.00 | 0.00 | 0.00 | 39 | 1015.2 |
| 20260905091859 | 89 | 182 | 9.0 | 10.0 | 0.00 | 0.00 | 0.00 | 39 | 1015.2 |
| 20260905091401 | 89 | 182 | 9.0 | 10.0 | 0.00 | 0.00 | 0.00 | 40 | 1015.3 |
| 20260905090859 | 89 | 181 | 9.0 | 10.0 | 0.00 | 0.00 | 0.00 | 40 | 1015.1 |
| 20260905090402 | 89 | 180 | 7.0 | 9.0 | 0.00 | 0.00 | 0.00 | 40 | 1015.3 |
| 20260905085855 | 88 | 180 | 6.0 | 9.0 | 0.00 | 0.00 | 0.00 | 42 | 1015.3 |
| 20260905085355 | 88 | 175 | 6.0 | 9.0 | 0.00 | 0.00 | 0.00 | 41 | 1015.6 |
| 20260905084856 | 88 | 180 | 7.0 | 9.0 | 0.00 | 0.00 | 0.00 | 42 | 1015.9 |
| 20260905084357 | 87 | 180 | 7.0 | 9.0 | 0.00 | 0.00 | 0.00 | 42 | 1015.8 |
| 20260905083856 | 87 | 181 | 8.0 | 9.0 | 0.00 | 0.00 | 0.00 | 43 | 1015.6 |
| 20260905083355 | 86 | 178 | 6.0 | 9.0 | 0.00 | 0.00 | 0.00 | 43 | 1015.5 |
| 20260905082857 | 86 | 179 | 7.0 | 9.0 | 0.00 | 0.00 | 0.00 | 44 | 1015.7 |
| 20260905082355 | 85 | 180 | 6.0 | 9.0 | 0.00 | 0.00 | 0.00 | 45 | 1015.7 |
| 20260905081856 | 85 | 180 | 6.0 | 9.0 | 0.00 | 0.00 | 0.00 | 46 | 1015.5 |
| 20260905081354 | 85 | 180 | 6.0 | 9.0 | 0.00 | 0.00 | 0.00 | 46 | 1015.4 |
| 20260905080856 | 84 | 180 | 7.0 | 9.0 | 0.00 | 0.00 | 0.00 | 48 | 1015.4 |
| 20260905080354 | 83 | 180 | 7.0 | 9.0 | 0.00 | 0.00 | 0.00 | 48 | 1015.5 |
| 20260905075846 | 83 | 180 | 8.0 | 10.0 | 0.00 | 0.00 | 0.00 | 49 | 1015.5 |
| 20260905075347 | 82 | 179 | 8.0 | 10.0 | 0.00 | 0.00 | 0.00 | 49 | 1015.4 |
| 20260905074849 | 81 | 180 | 7.0 | 8.0 | 0.00 | 0.00 | 0.00 | 53 | 1015.4 |
| 20260905074346 | 81 | 179 | 7.0 | 9.0 | 0.00 | 0.00 | 0.00 | 53 | 1015.5 |
| 20260905073846 | 80 | 181 | 6.0 | 9.0 | 0.00 | 0.00 | 0.00 | 53 | 1015.2 |
| 20260905073345 | 80 | 181 | 7.0 | 9.0 | 0.00 | 0.00 | 0.00 | 54 | 1015.4 |
| 20260905072847 | 79 | 180 | 7.0 | 8.0 | 0.00 | 0.00 | 0.00 | 54 | 1015.3 |
| 20260905072347 | 78 | 183 | 7.0 | 8.0 | 0.00 | 0.00 | 0.00 | 55 | 1015.1 |
| 20260905071847 | 78 | 180 | 7.0 | 9.0 | 0.00 | 0.00 | 0.00 | 56 | 1015.1 |
| 20260905071345 | 77 | 180 | 6.0 | 9.0 | 0.00 | 0.00 | 0.00 | 57 | 1015.1 |
| 20260905070847 | 76 | 180 | 6.0 | 7.0 | 0.00 | 0.00 | 0.00 | 58 | 1015.1 |
| 20260905070347 | 76 | 182 | 7.0 | 10.0 | 0.00 | 0.00 | 0.00 | 58 | 1015.1 |
| 20260905065837 | 75 | 181 | 6.0 | 10.0 | 0.00 | 0.00 | 0.00 | 59 | 1015.0 |
| 20260905065336 | 74 | 181 | 7.0 | 8.0 | 0.00 | 0.00 | 0.00 | 59 | 1015.1 |
| 20260905064838 | 74 | 181 | 7.0 | 9.0 | 0.00 | 0.00 | 0.00 | 60 | 1014.9 |
| 20260905064337 | 73 | 181 | 7.0 | 9.0 | 0.00 | 0.00 | 0.00 | 60 | 1014.7 |
| 20260905063837 | 73 | 181 | 7.0 | 8.0 | 0.00 | 0.00 | 0.00 | 61 | 1014.8 |
| 20260905063336 | 72 | 177 | 7.0 | 8.0 | 0.00 | 0.00 | 0.00 | 61 | 1015.0 |
| 20260905062837 | 72 | 189 | 6.0 | 8.0 | 0.00 | 0.00 | 0.00 | 62 | 1014.8 |
| 20260905062338 | 71 | 183 | 6.0 | 8.0 | 0.00 | 0.00 | 0.00 | 63 | 1014.8 |
| 20260905061837 | 70 | 176 | 6.0 | 8.0 | 0.00 | 0.00 | 0.00 | 64 | 1014.6 |
| 20260905061337 | 70 | 189 | 3.0 | 8.0 | 0.00 | 0.00 | 0.00 | 64 | 1014.9 |
| 20260905060835 | 69 | 201 | 5.0 | 9.0 | 0.00 | 0.00 | 0.00 | 65 | 1014.8 |
| 20260905060336 | 69 | 178 | 6.0 | 9.0 | 0.00 | 0.00 | 0.00 | 65 | 1015.0 |
| 20260905055827 | 68 | 179 | 7.0 | 9.0 | 0.00 | 0.00 | 0.00 | 65 | 1014.9 |
| 20260905055327 | 68 | 194 | 9.0 | 10.0 | 0.00 | 0.00 | 0.00 | 66 | 1014.8 |
| 20260905054827 | 67 | 181 | 8.0 | 11.0 | 0.00 | 0.00 | 0.00 | 66 | 1014.8 |
| 20260905054325 | 67 | 181 | 9.0 | 11.0 | 0.00 | 0.00 | 0.00 | 67 | 1014.8 |
| 20260905053828 | 66 | 181 | 9.0 | 10.0 | 0.00 | 0.00 | 0.00 | 68 | 1014.9 |
| 20260905053325 | 66 | 184 | 9.0 | 11.0 | 0.00 | 0.00 | 0.00 | 69 | 1014.6 |
| 20260905052828 | 65 | 182 | 9.0 | 11.0 | 0.00 | 0.00 | 0.00 | 69 | 1014.9 |
| 20260905052323 | 65 | 183 | 9.0 | 10.0 | 0.00 | 0.00 | 0.00 | 69 | 1014.8 |
| 20260905051824 | 65 | 184 | 8.0 | 9.0 | 0.00 | 0.00 | 0.00 | 69 | 1014.8 |
| 20260905051325 | 65 | 192 | 8.0 | 9.0 | 0.00 | 0.00 | 0.00 | 69 | 1014.8 |
| 20260905050824 | 65 | 185 | 8.0 | 10.0 | 0.00 | 0.00 | 0.00 | 70 | 1014.8 |
| 20260905050323 | 64 | 174 | 7.0 | 10.0 | 0.00 | 0.00 | 0.00 | 70 | 1014.9 |
| 20260905045824 | 64 | 198 | 6.0 | 8.0 | 0.00 | 0.00 | 0.00 | 71 | 1014.8 |
| 20260905045323 | 65 | 188 | 3.0 | 8.0 | 0.00 | 0.00 | 0.00 | 71 | 1014.8 |
| 20260905044824 | 65 | 186 | 4.0 | 8.0 | 0.00 | 0.00 | 0.00 | 71 | 1014.8 |
| 20260905044324 | 65 | 183 | 6.0 | 8.0 | 0.00 | 0.00 | 0.00 | 71 | 1014.6 |
| 20260905043824 | 65 | 184 | 6.0 | 8.0 | 0.00 | 0.00 | 0.00 | 72 | 1014.8 |
| 20260905043324 | 65 | 187 | 7.0 | 8.0 | 0.00 | 0.00 | 0.00 | 72 | 1014.7 |
| 20260905042823 | 65 | 182 | 7.0 | 8.0 | 0.00 | 0.00 | 0.00 | 73 | 1014.6 |
| 20260905042325 | 65 | 184 | 7.0 | 8.0 | 0.00 | 0.00 | 0.00 | 72 | 1014.6 |
| 20260905041823 | 66 | 184 | 8.0 | 8.0 | 0.00 | 0.00 | 0.00 | 72 | 1014.5 |
| 20260905041324 | 66 | 184 | 8.0 | 8.0 | 0.00 | 0.00 | 0.00 | 72 | 1014.5 |
| 20260905040825 | 66 | 184 | 7.0 | 9.0 | 0.00 | 0.00 | 0.00 | 72 | 1014.4 |
| 20260905040324 | 66 | 184 | 8.0 | 9.0 | 0.00 | 0.00 | 0.00 | 72 | 1014.3 |
| 20260905035814 | 66 | 183 | 7.0 | 8.0 | 0.00 | 0.00 | 0.00 | 71 | 1014.4 |
| 20260905035313 | 66 | 184 | 7.0 | 8.0 | 0.00 | 0.00 | 0.00 | 71 | 1014.4 |
| 20260905034814 | 66 | 183 | 7.0 | 8.0 | 0.00 | 0.00 | 0.00 | 71 | 1014.5 |
| 20260905034314 | 66 | 183 | 7.0 | 8.0 | 0.00 | 0.00 | 0.00 | 70 | 1014.5 |
| 20260905033813 | 66 | 181 | 7.0 | 8.0 | 0.00 | 0.00 | 0.00 | 70 | 1014.5 |
| 20260905033316 | 66 | 182 | 7.0 | 8.0 | 0.00 | 0.00 | 0.00 | 70 | 1014.5 |
| 20260905032813 | 66 | 184 | 7.0 | 8.0 | 0.00 | 0.00 | 0.00 | 70 | 1014.6 |
| 20260905032314 | 66 | 182 | 6.0 | 8.0 | 0.00 | 0.00 | 0.00 | 70 | 1014.7 |
| 20260905031813 | 67 | 182 | 7.0 | 8.0 | 0.00 | 0.00 | 0.00 | 70 | 1014.6 |
| 20260905031315 | 67 | 183 | 7.0 | 7.0 | 0.00 | 0.00 | 0.00 | 70 | 1014.6 |
| 20260905030815 | 67 | 180 | 7.0 | 7.0 | 0.00 | 0.00 | 0.00 | 70 | 1014.6 |
| 20260905030307 | 67 | 183 | 7.0 | 8.0 | 0.00 | 0.00 | 0.00 | 70 | 1014.6 |
| 20260905025807 | 67 | 182 | 7.0 | 8.0 | 0.00 | 0.00 | 0.00 | 70 | 1014.8 |
| 20260905025306 | 67 | 182 | 7.0 | 7.0 | 0.00 | 0.00 | 0.00 | 70 | 1014.7 |
| 20260905024806 | 67 | 183 | 6.0 | 7.0 | 0.00 | 0.00 | 0.00 | 70 | 1014.7 |
| 20260905024307 | 67 | 185 | 7.0 | 7.0 | 0.00 | 0.00 | 0.00 | 70 | 1014.6 |
| 20260905023806 | 67 | 182 | 7.0 | 7.0 | 0.00 | 0.00 | 0.00 | 70 | 1014.6 |
| 20260905023305 | 67 | 183 | 7.0 | 7.0 | 0.00 | 0.00 | 0.00 | 70 | 1014.7 |
| 20260905022804 | 67 | 181 | 7.0 | 7.0 | 0.00 | 0.00 | 0.00 | 70 | 1014.8 |
| 20260905022306 | 67 | 181 | 7.0 | 7.0 | 0.00 | 0.00 | 0.00 | 71 | 1014.8 |
| 20260905021803 | 68 | 184 | 7.0 | 8.0 | 0.00 | 0.00 | 0.00 | 71 | 1014.5 |
| 20260905021305 | 68 | 181 | 6.0 | 8.0 | 0.00 | 0.00 | 0.00 | 71 | 1014.6 |
| 20260905020804 | 68 | 182 | 7.0 | 8.0 | 0.00 | 0.00 | 0.00 | 71 | 1014.6 |
| 20260905020305 | 68 | 182 | 7.0 | 8.0 | 0.00 | 0.00 | 0.00 | 71 | 1014.8 |
| 20260905015805 | 68 | 183 | 7.0 | 8.0 | 0.00 | 0.00 | 0.00 | 70 | 1014.5 |
| 20260905015306 | 68 | 182 | 7.0 | 8.0 | 0.00 | 0.00 | 0.00 | 70 | 1014.7 |